Flag for Italy Weather past 2 weeks in Venice, Italy

Now
61 °F

Fog.


Feels Like: 61 °F
Forecast: 60 / 74 °F
Wind: 6 mph from Northeast

Location: Venice / Tessera

Current Time: May 4, 2015 at 6:59:12 AM

Latest Report: May 4, 2015 at 6:20 AM


Visibility: 1 mi

Pressure: 29.95 "Hg

Humidity: 94%

Dew point: 59 °F

Location of VeniceLocation

Historic Weather in Venice — Graph

°F

Venice temperature yesterday

Maximum temperature yesterday: 66 °F (at 1:50 PM)
Minimum temperature yesterday: 61 °F (at 12:20 AM)
Average temperature yesterday: 63 °F

Past Weeks' High & Low Weather Summary

 TemperatureHumidityPressure
High70 °F (Apr 21, 2:20 PM)94% (Apr 21, 12:50 AM)30.24 "Hg (Apr 21, 12:50 AM)
Low41 °F (Apr 20, 5:50 AM)41% (Apr 19, 1:50 PM)29.56 "Hg (Apr 28, 4:20 AM)
Average59 °F76%29.96 "Hg
* Reported Apr 19 5:20 AM — May 4 5:20 AM, Venice, Weather by CustomWeather, © 2015

Note: Actual official high and low records may vary slightly from our data, if they occured in-between our weather recording intervals... More about our weather records

Advertising

Venice weather history for previous 24 hours

 ConditionsComfort  
Time TempWeatherWind HumidityBarometerVisibility
5:20 AM
Mon, May 4
61 °FPartly cloudy.6 mph94%29.95 "Hg4 mi
4:50 AM61 °FPartly cloudy.6 mph94%29.95 "Hg4 mi
4:20 AM61 °FPartly cloudy.6 mph88%29.95 "Hg5 mi
3:50 AM63 °FPassing clouds.5 mph83%29.95 "Hg6 mi
3:20 AM63 °FPassing clouds.6 mph83%29.95 "HgN/A
2:50 AM63 °FPassing clouds.6 mph83%29.95 "HgN/A
2:20 AM63 °FPassing clouds.6 mph83%29.95 "HgN/A
1:50 AM63 °FPassing clouds.6 mph83%29.95 "HgN/A
1:20 AM63 °FPassing clouds.6 mph83%29.95 "HgN/A
12:50 AM63 °FPassing clouds.5 mph83%29.95 "HgN/A
12:20 AM64 °FPassing clouds.6 mph78%29.95 "HgN/A
11:50 PM
Sun, May 3
63 °FPassing clouds.3 mph83%29.98 "HgN/A
11:20 PM63 °FPassing clouds.5 mph83%29.95 "HgN/A
10:50 PM64 °FPassing clouds.6 mph78%29.95 "HgN/A
10:20 PM64 °FPassing clouds.6 mph78%29.95 "HgN/A
9:50 PM64 °FPassing clouds.5 mph78%29.95 "HgN/A
9:20 PM64 °FPassing clouds.7 mph73%29.95 "HgN/A
8:50 PM64 °FPartly sunny.7 mph73%29.92 "HgN/A
8:20 PM64 °FPartly sunny.8 mph73%29.92 "HgN/A
7:50 PM64 °FScattered clouds.7 mph73%29.92 "HgN/A
7:20 PM66 °FPartly sunny.7 mph68%29.92 "HgN/A
6:50 PM66 °FPassing clouds.7 mph68%29.92 "HgN/A
6:20 PM66 °FScattered clouds.7 mph68%29.92 "HgN/A
5:50 PM66 °FScattered clouds.7 mph68%29.89 "HgN/A
5:20 PM66 °FScattered clouds.8 mph73%29.89 "HgN/A
4:50 PM66 °FScattered clouds.8 mph68%29.89 "HgN/A
4:20 PM66 °FScattered clouds.9 mph73%29.92 "HgN/A
3:50 PM66 °FBroken clouds.8 mph73%29.92 "HgN/A
3:20 PM66 °FBroken clouds.8 mph73%29.92 "HgN/A
2:50 PM66 °FBroken clouds.10 mph73%29.92 "HgN/A
2:20 PM64 °FBroken clouds.10 mph78%29.92 "HgN/A
1:50 PM66 °FBroken clouds.10 mph73%29.92 "HgN/A
1:20 PM64 °FBroken clouds.10 mph78%29.92 "HgN/A
12:50 PM64 °FBroken clouds.9 mph73%29.92 "HgN/A
12:20 PM64 °FBroken clouds.10 mph73%29.92 "HgN/A
11:50 AM63 °FBroken clouds.13 mph77%29.92 "HgN/A
11:20 AM63 °FBroken clouds.14 mph77%29.92 "HgN/A
10:50 AM63 °FBroken clouds.15 mph77%29.92 "HgN/A
10:20 AM63 °FBroken clouds.16 mph77%29.92 "HgN/A
9:50 AM63 °FBroken clouds.14 mph77%29.89 "HgN/A
9:20 AM63 °FBroken clouds.14 mph77%29.89 "HgN/A
8:50 AM61 °FBroken clouds.12 mph83%29.89 "HgN/A
8:20 AM61 °FBroken clouds.12 mph83%29.89 "HgN/A
7:50 AM61 °FBroken clouds.12 mph83%29.89 "HgN/A
7:20 AM61 °FBroken clouds.10 mph83%29.89 "HgN/A
6:50 AM61 °FPartly cloudy.10 mph83%29.86 "HgN/A
6:20 AM61 °FPartly cloudy.10 mph83%29.86 "HgN/A
Weather by CustomWeather, © 2015

See weather overviewHow to use our weather pages